Regional Weather Roundup
Issued by NWS Kansas City/Pleasant Hill, MO

Home | Current Version | Previous Version | Graphics & Text | Print | Product List | Glossary Off
Versions: 1 2 3 4 5 6 7 8 9 10 11 12 13 14 15 16 17 18 19 20 21 22 23 24 25 26

000
ASUS43 KEAX 252010
RWREAX

WEATHER ROUNDUP FOR EASTERN KANSAS AND NORTHWEST MISSOURI
NATIONAL WEATHER SERVICE KANSAS CITY/PLEASANT HILL MO
300 PM CDT WED MAY 25 2016

KSZ040-057-103>105-MOZ028-029-037-043-252100-
...KANSAS CITY METROPOLITAN AREA...

CITY           SKY/WX    TMP DP  RH WIND       PRES   REMARKS
K.C. INTL      MOSUNNY   80  65  59 S9G18     29.88F
K.C. DOWNTOWN  SUNNY     83  64  52 S9G18     29.87F
LEES SUMMIT    SUNNY     81  64  56 S13G22    29.90F
OLATHE - IXD   SUNNY     81  65  58 SE16      29.90F
OLATHE - OJC   SUNNY     78  64  61 S14       29.89F
LAWRENCE       SUNNY     82  67  60 S14G22    29.87F

$$

MOZ001>008-011>017-020>025-030>033-038>040-044>046-053-054-252100-
...NORTHERN AND CENTRAL MISSOURI...

CITY           SKY/WX    TMP DP  RH WIND       PRES   REMARKS
ST. JOSEPH     SUNNY     81  65  58 S14G20    29.87F
MOSBY          CLEAR     81  61  50 S9        29.89S
WARRENSBURG    SUNNY     79  63  57 S12       29.91F
WHITEMAN AFB   MOSUNNY   81  63  54 S8        29.91F
CLINTON        SUNNY     81  63  54 S3        29.94F
SEDALIA        CLOUDY    83  60  45 S7        29.94F
WARSAW         NOT AVBL
CHILLICOTHE      N/A     82  63  52 VRB6      29.90R
KIRKSVILLE     MOSUNNY   77  65  66 S9        29.91F

$$

MOZ041-047>049-056>058-063>065-088>090-097-252100-
...EASTERN AND SOUTHERN MISSOURI...

CITY           SKY/WX    TMP DP  RH WIND       PRES   REMARKS
ST. LOUIS INTL PTSUNNY   81  67  62 SE13      29.97F
SPIRIT OF STL  CLOUDY   N/A N/A N/A SW12      29.95F
COLUMBIA       SUNNY     83  62  49 VRB6      29.94F
JEFFERSON CITY SUNNY     83  60  45 VRB5      29.93F
ROLLA          CLOUDY    76  63  64 S6        29.96S
SPRINGFIELD    SUNNY     80  62  54 S18       29.97R
BRANSON        MOSUNNY   75  66  73 E8        30.01S
JOPLIN         PTSUNNY   82  67  60 S16G22    29.93S
WEST PLAINS    CLOUDY    71  63  75 VRB3      30.01R

$$

IAZ060-094-KSZ022-034>040-054-083-096-NEZ052-066-093-252100-
...KANSAS...SOUTHEAST NEBRASKA AND IOWA...

CITY           SKY/WX    TMP DP  RH WIND       PRES   REMARKS
TOPEKA         MOSUNNY   81  66  60 S15       29.87F
MANHATTAN      CLOUDY    81  68  64 S12G22    29.84S
EMPORIA        CLOUDY    79  67  66 S17G24    29.87F
CHANUTE        CLOUDY    82  68  62 S17       29.89F
WICHITA        PTSUNNY   88  75  65 S17G24    29.81F HX  97
OMAHA          PTSUNNY   79  62  56 S9        29.83F
LINCOLN        CLOUDY    77  65  66 S17       29.84R
FALLS CITY     SUNNY     79  65  62 S17G25    29.86F
LAMONI         CLOUDY    78  62  57 S21G26    29.87R
DES MOINES     CLOUDY    76  63  64 S9        29.86R

$$





USA.gov is the U.S. government's official web portal to all federal, state and local government web resources and services.